contact: severine.martini@mio.osupytheas.fr, dominique.lefevre@mio.osupytheas.fr
Project:EMSO Ligure-ouest http://www.emso-fr.org/EMSO-France
Sensor Microcat Sea-Bird SBE37 SMP,  Serial 57510 
DOI : "https://doi.org/10.17882/97948" 
Title:EMSO Ligure Ouest : Data Bathybot capteur Microcat - deploiement 2023-04-28
Datetime,Profondeur,Latitude,Longitude,Temperature,Conductivite,Pression,Salinite
time,m,degree_north,degree_east,degree_C,S/m,db,PSU 
2023-11-17T00:00:49,2420,42.8014,5.9826,13.2981,4.59923,2453.582,38.4881
2023-11-17T00:03:49,2420,42.8014,5.9826,13.2978,4.59936,2453.604,38.4896
2023-11-17T00:06:49,2420,42.8014,5.9826,13.2978,4.59920,2453.604,38.4881
2023-11-17T00:09:49,2420,42.8014,5.9826,13.2981,4.59927,2453.612,38.4885
2023-11-17T00:12:49,2420,42.8014,5.9826,13.2982,4.59920,2453.604,38.4878
2023-11-17T00:15:49,2420,42.8014,5.9826,13.2983,4.59922,2453.582,38.4878
2023-11-17T00:18:49,2420,42.8014,5.9826,13.2978,4.59919,2453.567,38.4881
2023-11-17T00:21:49,2420,42.8014,5.9826,13.2985,4.59917,2453.582,38.4872
2023-11-17T00:24:49,2420,42.8014,5.9826,13.2980,4.59917,2453.604,38.4876
2023-11-17T00:27:49,2420,42.8014,5.9826,13.2975,4.59917,2453.604,38.4881
2023-11-17T00:30:49,2420,42.8014,5.9826,13.2983,4.59918,2453.604,38.4874
2023-11-17T00:33:49,2420,42.8014,5.9826,13.2980,4.59917,2453.590,38.4877
2023-11-17T00:36:49,2420,42.8014,5.9826,13.2976,4.59920,2453.582,38.4883
2023-11-17T00:39:49,2420,42.8014,5.9826,13.2981,4.59916,2453.604,38.4874
2023-11-17T00:42:49,2420,42.8014,5.9826,13.2978,4.59917,2453.604,38.4879
2023-11-17T00:45:49,2420,42.8014,5.9826,13.2977,4.59917,2453.582,38.4879
2023-11-17T00:48:50,2420,42.8014,5.9826,13.2976,4.59915,2453.559,38.4879
2023-11-17T00:51:49,2420,42.8014,5.9826,13.2980,4.59915,2453.604,38.4875
2023-11-17T00:54:49,2420,42.8014,5.9826,13.2978,4.59916,2453.596,38.4878
2023-11-17T00:57:49,2420,42.8014,5.9826,13.2977,4.59916,2453.604,38.4879
2023-11-17T01:00:49,2420,42.8014,5.9826,13.2982,4.59915,2453.604,38.4873
2023-11-17T01:03:49,2420,42.8014,5.9826,13.2977,4.59916,2453.582,38.4879
2023-11-17T01:06:49,2420,42.8014,5.9826,13.2981,4.59916,2453.582,38.4875
2023-11-17T01:09:49,2420,42.8014,5.9826,13.2979,4.59916,2453.559,38.4877
2023-11-17T01:12:49,2420,42.8014,5.9826,13.2978,4.59917,2453.582,38.4879
2023-11-17T01:15:49,2420,42.8014,5.9826,13.2985,4.59916,2453.559,38.4871
2023-11-17T01:18:49,2420,42.8014,5.9826,13.2978,4.59917,2453.559,38.4879
2023-11-17T01:21:49,2420,42.8014,5.9826,13.2976,4.59917,2453.559,38.4880
2023-11-17T01:24:49,2420,42.8014,5.9826,13.2986,4.59915,2453.582,38.4869
2023-11-17T01:27:49,2420,42.8014,5.9826,13.2976,4.59914,2453.559,38.4878
2023-11-17T01:30:49,2420,42.8014,5.9826,13.2982,4.59914,2453.559,38.4873
2023-11-17T01:33:49,2420,42.8014,5.9826,13.2988,4.59915,2453.559,38.4867
2023-11-17T01:36:49,2420,42.8014,5.9826,13.2986,4.59915,2453.559,38.4868
2023-11-17T01:39:49,2420,42.8014,5.9826,13.2975,4.59914,2453.574,38.4879
2023-11-17T01:42:49,2420,42.8014,5.9826,13.2981,4.59914,2453.559,38.4873
2023-11-17T01:45:49,2420,42.8014,5.9826,13.2979,4.59913,2453.544,38.4873
2023-11-17T01:48:49,2420,42.8014,5.9826,13.2979,4.59914,2453.582,38.4875
2023-11-17T01:51:49,2420,42.8014,5.9826,13.2980,4.59913,2453.582,38.4872
2023-11-17T01:54:49,2420,42.8014,5.9826,13.2980,4.59914,2453.559,38.4873
2023-11-17T01:57:49,2420,42.8014,5.9826,13.2981,4.59914,2453.537,38.4873
2023-11-17T02:00:49,2420,42.8014,5.9826,13.2973,4.59914,2453.559,38.4881
2023-11-17T02:03:49,2420,42.8014,5.9826,13.3004,4.59916,2453.537,38.4851
2023-11-17T02:06:49,2420,42.8014,5.9826,13.2991,4.59914,2453.537,38.4863
2023-11-17T02:09:49,2420,42.8014,5.9826,13.2978,4.59915,2453.559,38.4877
2023-11-17T02:12:49,2420,42.8014,5.9826,13.3000,4.59915,2453.537,38.4855
2023-11-17T02:15:49,2420,42.8014,5.9826,13.2979,4.59914,2453.537,38.4875
2023-11-17T02:18:49,2420,42.8014,5.9826,13.2984,4.59914,2453.537,38.4870
2023-11-17T02:21:49,2420,42.8014,5.9826,13.2981,4.59914,2453.551,38.4873
2023-11-17T02:24:49,2420,42.8014,5.9826,13.2977,4.59914,2453.537,38.4878
2023-11-17T02:27:49,2420,42.8014,5.9826,13.2978,4.59913,2453.537,38.4875
2023-11-17T02:30:49,2420,42.8014,5.9826,13.2975,4.59913,2453.537,38.4878
2023-11-17T02:33:49,2420,42.8014,5.9826,13.2978,4.59914,2453.559,38.4876
2023-11-17T02:36:49,2420,42.8014,5.9826,13.2976,4.59913,2453.537,38.4877
2023-11-17T02:39:49,2420,42.8014,5.9826,13.2982,4.59914,2453.537,38.4872
2023-11-17T02:42:49,2420,42.8014,5.9826,13.2990,4.59914,2453.537,38.4863
2023-11-17T02:45:49,2420,42.8014,5.9826,13.2973,4.59913,2453.537,38.4879
2023-11-17T02:48:49,2420,42.8014,5.9826,13.2985,4.59914,2453.514,38.4869
2023-11-17T02:51:49,2420,42.8014,5.9826,13.2982,4.59914,2453.544,38.4872
2023-11-17T02:54:49,2420,42.8014,5.9826,13.2978,4.59914,2453.537,38.4876
2023-11-17T02:57:49,2420,42.8014,5.9826,13.2982,4.59914,2453.574,38.4871
2023-11-17T03:00:50,2420,42.8014,5.9826,13.2978,4.59914,2453.559,38.4875
2023-11-17T03:03:49,2420,42.8014,5.9826,13.2976,4.59914,2453.537,38.4877
2023-11-17T03:06:49,2420,42.8014,5.9826,13.2980,4.59915,2453.551,38.4875
2023-11-17T03:09:49,2420,42.8014,5.9826,13.2998,4.59914,2453.537,38.4857
2023-11-17T03:12:49,2420,42.8014,5.9826,13.2978,4.59914,2453.522,38.4876
2023-11-17T03:15:49,2420,42.8014,5.9826,13.2978,4.59914,2453.514,38.4877
2023-11-17T03:18:49,2420,42.8014,5.9826,13.2990,4.59914,2453.514,38.4864
2023-11-17T03:21:49,2420,42.8014,5.9826,13.3007,4.59914,2453.514,38.4848
2023-11-17T03:24:49,2420,42.8014,5.9826,13.2978,4.59915,2453.514,38.4877
2023-11-17T03:27:49,2420,42.8014,5.9826,13.2979,4.59913,2453.514,38.4873
2023-11-17T03:30:49,2420,42.8014,5.9826,13.2979,4.59913,2453.514,38.4873
2023-11-17T03:33:49,2420,42.8014,5.9826,13.2982,4.59915,2453.537,38.4873
2023-11-17T03:36:49,2420,42.8014,5.9826,13.2974,4.59913,2453.514,38.4879
2023-11-17T03:39:49,2420,42.8014,5.9826,13.2979,4.59914,2453.537,38.4874
2023-11-17T03:42:49,2420,42.8014,5.9826,13.2982,4.59914,2453.537,38.4872
2023-11-17T03:45:49,2420,42.8014,5.9826,13.2983,4.59914,2453.537,38.4871
2023-11-17T03:48:49,2420,42.8014,5.9826,13.2976,4.59914,2453.551,38.4877
2023-11-17T03:51:49,2420,42.8014,5.9826,13.2978,4.59914,2453.537,38.4876
2023-11-17T03:54:49,2420,42.8014,5.9826,13.2985,4.59914,2453.537,38.4870
2023-11-17T03:57:49,2420,42.8014,5.9826,13.2977,4.59914,2453.537,38.4877
2023-11-17T04:00:49,2420,42.8014,5.9826,13.2980,4.59914,2453.559,38.4874
2023-11-17T04:03:49,2420,42.8014,5.9826,13.2979,4.59915,2453.514,38.4876
2023-11-17T04:06:49,2420,42.8014,5.9826,13.2984,4.59914,2453.514,38.4870
2023-11-17T04:09:49,2420,42.8014,5.9826,13.2979,4.59916,2453.574,38.4877
2023-11-17T04:12:49,2420,42.8014,5.9826,13.2986,4.59915,2453.559,38.4869
2023-11-17T04:15:49,2420,42.8014,5.9826,13.2978,4.59915,2453.537,38.4877
2023-11-17T04:18:49,2420,42.8014,5.9826,13.2975,4.59914,2453.537,38.4878
2023-11-17T04:21:49,2420,42.8014,5.9826,13.2986,4.59914,2453.528,38.4868
2023-11-17T04:24:49,2420,42.8014,5.9826,13.2986,4.59915,2453.551,38.4868
2023-11-17T04:27:49,2420,42.8014,5.9826,13.2979,4.59915,2453.537,38.4875
2023-11-17T04:30:49,2420,42.8014,5.9826,13.2985,4.59917,2453.537,38.4872
2023-11-17T04:33:49,2420,42.8014,5.9826,13.2991,4.59914,2453.559,38.4863
2023-11-17T04:36:49,2420,42.8014,5.9826,13.2975,4.59914,2453.514,38.4880
2023-11-17T04:39:49,2420,42.8014,5.9826,13.2978,4.59914,2453.514,38.4876
2023-11-17T04:42:49,2420,42.8014,5.9826,13.2975,4.59916,2453.559,38.4881
2023-11-17T04:45:49,2420,42.8014,5.9826,13.2979,4.59915,2453.559,38.4875
2023-11-17T04:48:49,2420,42.8014,5.9826,13.2978,4.59915,2453.574,38.4877
2023-11-17T04:51:49,2420,42.8014,5.9826,13.2975,4.59913,2453.537,38.4878
2023-11-17T04:54:49,2420,42.8014,5.9826,13.2988,4.59916,2453.537,38.4868
2023-11-17T04:57:49,2420,42.8014,5.9826,13.2975,4.59919,2453.522,38.4883
2023-11-17T05:00:49,2420,42.8014,5.9826,13.2975,4.59920,2453.537,38.4884
2023-11-17T05:03:49,2420,42.8014,5.9826,13.2979,4.59918,2453.582,38.4879
2023-11-17T05:06:49,2420,42.8014,5.9826,13.2976,4.59919,2453.559,38.4882
2023-11-17T05:09:49,2420,42.8014,5.9826,13.2979,4.59920,2453.537,38.4880
2023-11-17T05:12:49,2420,42.8014,5.9826,13.2977,4.59917,2453.574,38.4879
2023-11-17T05:15:49,2420,42.8014,5.9826,13.2979,4.59928,2453.596,38.4887
2023-11-17T05:18:49,2420,42.8014,5.9826,13.2979,4.59931,2453.537,38.4891
2023-11-17T05:21:49,2420,42.8014,5.9826,13.2978,4.59923,2453.544,38.4884
2023-11-17T05:24:49,2420,42.8014,5.9826,13.2978,4.59928,2453.544,38.4889
2023-11-17T05:27:49,2420,42.8014,5.9826,13.2977,4.59925,2453.582,38.4887
2023-11-17T05:30:49,2420,42.8014,5.9826,13.2978,4.59930,2453.559,38.4891
2023-11-17T05:33:49,2420,42.8014,5.9826,13.2978,4.59919,2453.559,38.4881
2023-11-17T05:36:50,2420,42.8014,5.9826,13.2976,4.59926,2453.582,38.4889
2023-11-17T05:39:49,2420,42.8014,5.9826,13.2975,4.59920,2453.604,38.4884
2023-11-17T05:42:49,2420,42.8014,5.9826,13.2978,4.59922,2453.559,38.4884
2023-11-17T05:45:49,2420,42.8014,5.9826,13.2975,4.59918,2453.559,38.4882
2023-11-17T05:48:49,2420,42.8014,5.9826,13.2978,4.59923,2453.574,38.4885
2023-11-17T05:51:49,2420,42.8014,5.9826,13.2975,4.59926,2453.582,38.4891
2023-11-17T05:54:49,2420,42.8014,5.9826,13.2978,4.59920,2453.582,38.4881
2023-11-17T05:57:49,2420,42.8014,5.9826,13.2974,4.59927,2453.604,38.4892
2023-11-17T06:00:49,2420,42.8014,5.9826,13.2972,4.59926,2453.582,38.4893
2023-11-17T06:03:49,2420,42.8014,5.9826,13.2977,4.59935,2453.582,38.4897
2023-11-17T06:06:49,2420,42.8014,5.9826,13.2978,4.59931,2453.582,38.4892
2023-11-17T06:09:49,2420,42.8014,5.9826,13.2978,4.59926,2453.604,38.4887
2023-11-17T06:12:49,2420,42.8014,5.9826,13.2982,4.59928,2453.604,38.4885
2023-11-17T06:15:49,2420,42.8014,5.9826,13.2983,4.59927,2453.604,38.4883
2023-11-17T06:18:49,2420,42.8014,5.9826,13.2982,4.59934,2453.596,38.4891
2023-11-17T06:21:49,2420,42.8014,5.9826,13.2979,4.59935,2453.641,38.4894
2023-11-17T06:24:49,2420,42.8014,5.9826,13.2982,4.59926,2453.627,38.4883
2023-11-17T06:27:49,2420,42.8014,5.9826,13.2979,4.59928,2453.627,38.4888
2023-11-17T06:30:49,2420,42.8014,5.9826,13.2981,4.59936,2453.664,38.4893
2023-11-17T06:33:49,2420,42.8014,5.9826,13.2978,4.59949,2453.672,38.4909
2023-11-17T06:36:49,2420,42.8014,5.9826,13.2979,4.59938,2453.627,38.4897
2023-11-17T06:39:49,2420,42.8014,5.9826,13.2979,4.59937,2453.641,38.4895
2023-11-17T06:42:49,2420,42.8014,5.9826,13.2975,4.59938,2453.649,38.4902
2023-11-17T06:45:49,2420,42.8014,5.9826,13.2979,4.59943,2453.649,38.4901
2023-11-17T06:48:49,2420,42.8014,5.9826,13.2982,4.59940,2453.695,38.4896
2023-11-17T06:51:49,2420,42.8014,5.9826,13.2982,4.59948,2453.649,38.4904
2023-11-17T06:54:49,2420,42.8014,5.9826,13.2982,4.59937,2453.649,38.4894
2023-11-17T06:57:49,2420,42.8014,5.9826,13.2984,4.59950,2453.687,38.4903
2023-11-17T07:00:50,2420,42.8014,5.9826,13.2982,4.59939,2453.672,38.4895
2023-11-17T07:03:49,2420,42.8014,5.9826,13.2984,4.59952,2453.649,38.4905
2023-11-17T07:06:49,2420,42.8014,5.9826,13.2978,4.59936,2453.672,38.4896
2023-11-17T07:09:49,2420,42.8014,5.9826,13.2989,4.59955,2453.672,38.4903
2023-11-17T07:12:49,2420,42.8014,5.9826,13.2978,4.59956,2453.695,38.4915
2023-11-17T07:15:49,2420,42.8014,5.9826,13.2984,4.59957,2453.649,38.4910
2023-11-17T07:18:49,2420,42.8014,5.9826,13.2982,4.59933,2453.672,38.4890
2023-11-17T07:21:49,2420,42.8014,5.9826,13.2979,4.59948,2453.717,38.4905
2023-11-17T07:24:49,2420,42.8014,5.9826,13.2979,4.59948,2453.695,38.4906
2023-11-17T07:27:49,2420,42.8014,5.9826,13.2981,4.59949,2453.695,38.4905
2023-11-17T07:30:49,2420,42.8014,5.9826,13.2986,4.59941,2453.732,38.4893
2023-11-17T07:33:49,2420,42.8014,5.9826,13.2979,4.59958,2453.732,38.4916
2023-11-17T07:36:49,2420,42.8014,5.9826,13.2984,4.59958,2453.717,38.4911
2023-11-17T07:39:49,2420,42.8014,5.9826,13.2988,4.59963,2453.740,38.4911
2023-11-17T07:42:49,2420,42.8014,5.9826,13.2994,4.59981,2453.732,38.4922
2023-11-17T07:45:49,2420,42.8014,5.9826,13.3168,4.59947,2453.717,38.4718
2023-11-17T07:48:49,2420,42.8014,5.9826,13.3074,4.60006,2453.702,38.4866
2023-11-17T07:51:49,2420,42.8014,5.9826,13.3084,4.59973,2453.740,38.4825
2023-11-17T07:54:49,2420,42.8014,5.9826,13.3365,4.59993,2453.695,38.4566
2023-11-17T07:57:49,2420,42.8014,5.9826,13.3052,4.60042,2453.717,38.4923
2023-11-17T08:00:49,2420,42.8014,5.9826,13.3024,4.60055,2453.762,38.4962
2023-11-17T08:03:49,2420,42.8014,5.9826,13.3021,4.60023,2453.717,38.4935
2023-11-17T08:06:49,2420,42.8014,5.9826,13.3014,4.60022,2453.740,38.4942
2023-11-17T08:09:49,2420,42.8014,5.9826,13.3158,4.59996,2453.740,38.4774
2023-11-17T08:12:49,2420,42.8014,5.9826,13.3435,4.59988,2453.717,38.4492
2023-11-17T08:15:49,2420,42.8014,5.9826,13.3039,4.60015,2453.717,38.4910
2023-11-17T08:18:49,2420,42.8014,5.9826,13.3245,4.60032,2453.754,38.4721
2023-11-17T08:21:49,2420,42.8014,5.9826,13.3239,4.60059,2453.754,38.4753
2023-11-17T08:24:49,2420,42.8014,5.9826,13.3142,4.60025,2453.777,38.4817
2023-11-17T08:27:49,2420,42.8014,5.9826,13.3210,4.60009,2453.748,38.4735
2023-11-17T08:30:49,2420,42.8014,5.9826,13.3103,4.59993,2453.725,38.4825
2023-11-17T08:33:49,2420,42.8014,5.9826,13.3040,4.60029,2453.740,38.4922
2023-11-17T08:36:49,2420,42.8014,5.9826,13.3218,4.60041,2453.762,38.4756
2023-11-17T08:39:49,2420,42.8014,5.9826,13.3269,4.60030,2453.740,38.4696
2023-11-17T08:42:49,2420,42.8014,5.9826,13.3215,4.60052,2453.754,38.4770
2023-11-17T08:45:49,2420,42.8014,5.9826,13.3044,4.60063,2453.740,38.4950
2023-11-17T08:48:49,2420,42.8014,5.9826,13.2984,4.60032,2453.732,38.4980
2023-11-17T08:51:49,2420,42.8014,5.9826,13.3012,4.60069,2453.777,38.4987
2023-11-17T08:54:49,2420,42.8014,5.9826,13.2997,4.60021,2453.762,38.4957
2023-11-17T08:57:49,2420,42.8014,5.9826,13.3000,4.60022,2453.777,38.4956
2023-11-17T09:00:49,2420,42.8014,5.9826,13.3799,4.60032,2453.740,38.4172
2023-11-17T09:03:49,2420,42.8014,5.9826,13.3403,4.60041,2453.762,38.4573
2023-11-17T09:06:49,2420,42.8014,5.9826,13.3007,4.60250,2453.740,38.5164
2023-11-17T09:09:49,2420,42.8014,5.9826,13.2987,4.60295,2453.740,38.5226
2023-11-17T09:12:49,2420,42.8014,5.9826,13.3751,4.60042,2453.754,38.4230
2023-11-17T09:15:49,2420,42.8014,5.9826,13.3842,4.60272,2453.777,38.4356
2023-11-17T09:18:49,2420,42.8014,5.9826,13.3054,4.60132,2453.754,38.5005
2023-11-17T09:21:49,2420,42.8014,5.9826,13.3102,4.60045,2453.740,38.4875
2023-11-17T09:24:50,2420,42.8014,5.9826,13.3425,4.60052,2453.754,38.4562
2023-11-17T09:27:49,2420,42.8014,5.9826,13.2983,4.60274,2453.740,38.5210
2023-11-17T09:30:49,2420,42.8014,5.9826,13.2975,4.60201,2453.732,38.5149
2023-11-17T09:33:49,2420,42.8014,5.9826,13.2983,4.60200,2453.740,38.5140
2023-11-17T09:36:49,2420,42.8014,5.9826,13.3450,4.60169,2453.777,38.4647
2023-11-17T09:39:49,2420,42.8014,5.9826,13.2979,4.60350,2453.762,38.5286
2023-11-17T09:42:49,2420,42.8014,5.9826,13.2975,4.60170,2453.762,38.5120
2023-11-17T09:45:49,2420,42.8014,5.9826,13.2973,4.60320,2453.762,38.5263
2023-11-17T09:48:49,2420,42.8014,5.9826,13.3162,4.60164,2453.762,38.4928
2023-11-17T09:51:49,2420,42.8014,5.9826,13.3275,4.60150,2453.754,38.4803
2023-11-17T09:54:49,2420,42.8014,5.9826,13.2979,4.60191,2453.717,38.5135
2023-11-17T09:57:49,2420,42.8014,5.9826,13.2982,4.60035,2453.740,38.4986
2023-11-17T10:00:49,2420,42.8014,5.9826,13.2975,4.60058,2453.762,38.5014
2023-11-17T10:03:49,2420,42.8014,5.9826,13.2976,4.60316,2453.762,38.5256
2023-11-17T10:06:49,2420,42.8014,5.9826,13.2983,4.60302,2453.762,38.5236
2023-11-17T10:09:49,2420,42.8014,5.9826,13.2975,4.60365,2453.754,38.5303
2023-11-17T10:12:49,2420,42.8014,5.9826,13.3062,4.60373,2453.777,38.5224
2023-11-17T10:15:49,2420,42.8014,5.9826,13.3094,4.60287,2453.740,38.5112
2023-11-17T10:18:49,2420,42.8014,5.9826,13.2979,4.60061,2453.754,38.5013
2023-11-17T10:21:49,2420,42.8014,5.9826,13.3030,4.60235,2453.754,38.5126
2023-11-17T10:24:49,2420,42.8014,5.9826,13.3564,4.60059,2453.717,38.4431
2023-11-17T10:27:49,2420,42.8014,5.9826,13.2980,4.60069,2453.769,38.5019
2023-11-17T10:30:49,2420,42.8014,5.9826,13.2993,4.60186,2453.785,38.5117
2023-11-17T10:33:49,2420,42.8014,5.9826,13.2977,4.60144,2453.762,38.5093
2023-11-17T10:36:49,2420,42.8014,5.9826,13.2975,4.60071,2453.762,38.5026
2023-11-17T10:39:49,2420,42.8014,5.9826,13.2973,4.60220,2453.740,38.5168
2023-11-17T10:42:49,2420,42.8014,5.9826,13.2975,4.60409,2453.762,38.5345
2023-11-17T10:45:49,2420,42.8014,5.9826,13.3165,4.60078,2453.740,38.4844
2023-11-17T10:48:49,2420,42.8014,5.9826,13.3783,4.60061,2453.740,38.4216
2023-11-17T10:51:49,2420,42.8014,5.9826,13.3027,4.60081,2453.762,38.4984
2023-11-17T10:54:49,2420,42.8014,5.9826,13.3026,4.60056,2453.777,38.4962
2023-11-17T10:57:49,2420,42.8014,5.9826,13.3148,4.60041,2453.754,38.4826
2023-11-17T11:00:50,2420,42.8014,5.9826,13.3027,4.60027,2453.748,38.4933
2023-11-17T11:03:49,2420,42.8014,5.9826,13.3054,4.60048,2453.785,38.4926
2023-11-17T11:06:49,2420,42.8014,5.9826,13.3058,4.60212,2453.732,38.5077
2023-11-17T11:09:49,2420,42.8014,5.9826,13.3060,4.60098,2453.740,38.4967
2023-11-17T11:12:49,2420,42.8014,5.9826,13.3162,4.60036,2453.762,38.4807
2023-11-17T11:15:49,2420,42.8014,5.9826,13.3206,4.60005,2453.762,38.4735
2023-11-17T11:18:49,2420,42.8014,5.9826,13.3149,4.60015,2453.717,38.4801
2023-11-17T11:21:49,2420,42.8014,5.9826,13.3589,4.60027,2453.717,38.4376
2023-11-17T11:24:49,2420,42.8014,5.9826,13.3164,4.60016,2453.754,38.4787
2023-11-17T11:27:50,2420,42.8014,5.9826,13.3081,4.59994,2453.777,38.4847
2023-11-17T11:30:49,2420,42.8014,5.9826,13.3141,4.60017,2453.754,38.4811
2023-11-17T11:33:49,2420,42.8014,5.9826,13.3101,4.60048,2453.740,38.4879
2023-11-17T11:36:49,2420,42.8014,5.9826,13.3412,4.60048,2453.732,38.4572
2023-11-17T11:39:49,2420,42.8014,5.9826,13.3076,4.60090,2453.717,38.4943
2023-11-17T11:42:49,2420,42.8014,5.9826,13.3139,4.60045,2453.762,38.4839
2023-11-17T11:45:49,2420,42.8014,5.9826,13.3184,4.60026,2453.762,38.4776
2023-11-17T11:48:49,2420,42.8014,5.9826,13.3073,4.60010,2453.717,38.4871
2023-11-17T11:51:49,2420,42.8014,5.9826,13.3025,4.60011,2453.740,38.4920
2023-11-17T11:54:49,2420,42.8014,5.9826,13.2996,4.59982,2453.717,38.4921
2023-11-17T11:57:49,2420,42.8014,5.9826,13.2993,4.59981,2453.740,38.4924
2023-11-17T12:00:49,2420,42.8014,5.9826,13.3000,4.60025,2453.717,38.4957
2023-11-17T12:03:49,2420,42.8014,5.9826,13.3027,4.59997,2453.740,38.4905
2023-11-17T12:06:49,2420,42.8014,5.9826,13.3002,4.60002,2453.717,38.4935
2023-11-17T12:09:49,2420,42.8014,5.9826,13.3004,4.60032,2453.695,38.4961
2023-11-17T12:12:49,2420,42.8014,5.9826,13.3184,4.60047,2453.717,38.4796
2023-11-17T12:15:49,2420,42.8014,5.9826,13.2991,4.60013,2453.695,38.4955
2023-11-17T12:18:49,2420,42.8014,5.9826,13.2977,4.59990,2453.695,38.4948
2023-11-17T12:21:49,2420,42.8014,5.9826,13.2996,4.59931,2453.709,38.4873
2023-11-17T12:24:50,2420,42.8014,5.9826,13.2977,4.59967,2453.695,38.4926
2023-11-17T12:27:49,2420,42.8014,5.9826,13.2975,4.59963,2453.695,38.4925
2023-11-17T12:30:49,2420,42.8014,5.9826,13.2978,4.59935,2453.717,38.4895
2023-11-17T12:33:49,2420,42.8014,5.9826,13.2978,4.59928,2453.687,38.4889
2023-11-17T12:36:49,2420,42.8014,5.9826,13.2978,4.59947,2453.702,38.4906
2023-11-17T12:39:49,2420,42.8014,5.9826,13.2982,4.59946,2453.672,38.4902
2023-11-17T12:42:49,2420,42.8014,5.9826,13.2982,4.59972,2453.695,38.4926
2023-11-17T12:45:49,2420,42.8014,5.9826,13.2991,4.59948,2453.695,38.4894
2023-11-17T12:48:49,2420,42.8014,5.9826,13.2975,4.60006,2453.695,38.4965
2023-11-17T12:51:49,2420,42.8014,5.9826,13.2984,4.59931,2453.695,38.4886
2023-11-17T12:54:49,2420,42.8014,5.9826,13.2973,4.59962,2453.695,38.4926
2023-11-17T12:57:49,2420,42.8014,5.9826,13.2979,4.59942,2453.732,38.4900
2023-11-17T13:00:50,2420,42.8014,5.9826,13.2974,4.59945,2453.672,38.4908
2023-11-17T13:03:49,2420,42.8014,5.9826,13.2981,4.59931,2453.717,38.4888
2023-11-17T13:06:49,2420,42.8014,5.9826,13.2975,4.59922,2453.695,38.4886
2023-11-17T13:09:49,2420,42.8014,5.9826,13.2978,4.59917,2453.695,38.4878
2023-11-17T13:12:49,2420,42.8014,5.9826,13.2978,4.59921,2453.672,38.4882
2023-11-17T13:15:49,2420,42.8014,5.9826,13.2977,4.59934,2453.680,38.4896
2023-11-17T13:18:49,2420,42.8014,5.9826,13.2975,4.59931,2453.695,38.4894
2023-11-17T13:21:50,2420,42.8014,5.9826,13.2978,4.59926,2453.635,38.4887
2023-11-17T13:24:49,2420,42.8014,5.9826,13.2975,4.59917,2453.657,38.4881
2023-11-17T13:27:49,2420,42.8014,5.9826,13.2978,4.59922,2453.672,38.4883
2023-11-17T13:30:49,2420,42.8014,5.9826,13.2982,4.59917,2453.695,38.4875
2023-11-17T13:33:49,2420,42.8014,5.9826,13.2978,4.59918,2453.657,38.4880
2023-11-17T13:36:49,2420,42.8014,5.9826,13.2975,4.59917,2453.657,38.4881
2023-11-17T13:39:49,2420,42.8014,5.9826,13.2975,4.59917,2453.649,38.4882
2023-11-17T13:42:49,2420,42.8014,5.9826,13.2989,4.59922,2453.635,38.4872
2023-11-17T13:45:49,2420,42.8014,5.9826,13.2989,4.59917,2453.649,38.4868
2023-11-17T13:48:49,2420,42.8014,5.9826,13.2998,4.59917,2453.649,38.4858
2023-11-17T13:51:49,2420,42.8014,5.9826,13.2979,4.59917,2453.627,38.4877
2023-11-17T13:54:49,2420,42.8014,5.9826,13.3003,4.59917,2453.687,38.4853
2023-11-17T13:57:49,2420,42.8014,5.9826,13.2988,4.59919,2453.657,38.4870
2023-11-17T14:00:49,2420,42.8014,5.9826,13.3007,4.59918,2453.672,38.4851
2023-11-17T14:03:49,2420,42.8014,5.9826,13.3005,4.59916,2453.687,38.4850
2023-11-17T14:06:49,2420,42.8014,5.9826,13.2974,4.59915,2453.672,38.4880
2023-11-17T14:09:49,2420,42.8014,5.9826,13.2985,4.59917,2453.649,38.4872
2023-11-17T14:12:49,2420,42.8014,5.9826,13.2978,4.59917,2453.649,38.4878
2023-11-17T14:15:49,2420,42.8014,5.9826,13.2977,4.59916,2453.672,38.4878
2023-11-17T14:18:49,2420,42.8014,5.9826,13.2976,4.59915,2453.604,38.4879
2023-11-17T14:21:49,2420,42.8014,5.9826,13.2977,4.59917,2453.649,38.4880
2023-11-17T14:24:49,2420,42.8014,5.9826,13.2978,4.59916,2453.604,38.4877
2023-11-17T14:27:50,2420,42.8014,5.9826,13.2978,4.59915,2453.627,38.4876
2023-11-17T14:30:49,2420,42.8014,5.9826,13.2978,4.59915,2453.635,38.4877
2023-11-17T14:33:49,2420,42.8014,5.9826,13.2977,4.59915,2453.649,38.4878
2023-11-17T14:36:49,2420,42.8014,5.9826,13.2975,4.59915,2453.649,38.4880
2023-11-17T14:39:49,2420,42.8014,5.9826,13.2985,4.59916,2453.627,38.4871
2023-11-17T14:42:49,2420,42.8014,5.9826,13.3003,4.59917,2453.649,38.4853
2023-11-17T14:45:49,2420,42.8014,5.9826,13.2976,4.59915,2453.627,38.4878
2023-11-17T14:48:49,2420,42.8014,5.9826,13.2975,4.59917,2453.649,38.4881
2023-11-17T14:51:49,2420,42.8014,5.9826,13.3000,4.59919,2453.619,38.4859
2023-11-17T14:54:50,2420,42.8014,5.9826,13.3004,4.59918,2453.612,38.4854
2023-11-17T14:57:49,2420,42.8014,5.9826,13.2981,4.59916,2453.627,38.4874
2023-11-17T15:00:49,2420,42.8014,5.9826,13.2979,4.59916,2453.649,38.4876
2023-11-17T15:03:49,2420,42.8014,5.9826,13.2983,4.59918,2453.635,38.4874
2023-11-17T15:06:49,2420,42.8014,5.9826,13.2979,4.59929,2453.627,38.4888
2023-11-17T15:09:49,2420,42.8014,5.9826,13.3012,4.59920,2453.627,38.4846
2023-11-17T15:12:49,2420,42.8014,5.9826,13.2977,4.59915,2453.627,38.4878
2023-11-17T15:15:49,2420,42.8014,5.9826,13.2978,4.59915,2453.604,38.4877
2023-11-17T15:18:49,2420,42.8014,5.9826,13.2978,4.59914,2453.627,38.4876
2023-11-17T15:21:49,2420,42.8014,5.9826,13.2974,4.59914,2453.604,38.4880
2023-11-17T15:24:49,2420,42.8014,5.9826,13.2981,4.59915,2453.582,38.4874
2023-11-17T15:27:49,2420,42.8014,5.9826,13.2982,4.59915,2453.612,38.4873
2023-11-17T15:30:49,2420,42.8014,5.9826,13.2974,4.59916,2453.604,38.4881
2023-11-17T15:33:49,2420,42.8014,5.9826,13.2974,4.59916,2453.627,38.4881
2023-11-17T15:36:49,2420,42.8014,5.9826,13.2973,4.59914,2453.627,38.4880
2023-11-17T15:39:49,2420,42.8014,5.9826,13.2978,4.59914,2453.604,38.4876
2023-11-17T15:42:49,2420,42.8014,5.9826,13.2985,4.59916,2453.596,38.4871
2023-11-17T15:45:49,2420,42.8014,5.9826,13.2976,4.59917,2453.604,38.4880
2023-11-17T15:48:49,2420,42.8014,5.9826,13.2989,4.59915,2453.582,38.4866
2023-11-17T15:51:49,2420,42.8014,5.9826,13.2982,4.59915,2453.604,38.4873
2023-11-17T15:54:49,2420,42.8014,5.9826,13.2986,4.59915,2453.582,38.4869
2023-11-17T15:57:49,2420,42.8014,5.9826,13.2978,4.59915,2453.604,38.4877
2023-11-17T16:00:50,2420,42.8014,5.9826,13.2989,4.59915,2453.582,38.4866
2023-11-17T16:03:49,2420,42.8014,5.9826,13.2979,4.59915,2453.604,38.4876